Location: Aiyekoto
(8.4333°N, 4.3667°E)
Time: 14:36:40
(UTC+00:00)

Atlas Centaur 2 - Pass Details

Date: 07 June 2020
Orbit: 459 x 1310 km, 30.4° (Epoch: 07 July)

Event Time Altitude Azimuth Distance (km) Brightness Sun altitude
Exits shadow 03:51:06 42° 225° (SW) 1,206 2.5 -21.4°
Maximum altitude 03:53:10 76° 149° (SSE) 832 2.1 -21.0°
Drops below altitude 10° 03:58:10 10° 64° (ENE) 2,116 5.5 -19.9°
Sets 04:00:17 0° 62° (ENE) 2,917 6.7 -19.4°
